Location: Montichiari
(45.4167°N, 10.3833°E)
Time: 23:27:33
(UTC+00:00)

Daily predictions for brighter satellites

Satellite Brightness Start Highest point End
(mag) Time Altitude Azimuth Time Altitude Azimuth Time Altitude Azimuth
Spot 2 Rocket 3.9 18:20:39 10° S 18:25:43 69° WSW 18:30:48 10° NNW
BREEZE-M DEB (TANK) 4.3 18:24:35 10° SSW 18:28:29 54° SE 18:41:41 10° ENE
Cosmos 2263 Rocket 4.1 18:25:59 10° N 18:28:56 14° NE 18:31:53 10° ENE
CZ-4B DEB 2.8 18:27:28 10° SSE 18:30:44 78° ENE 18:34:02 10° N
ALOS 2.3 18:26:44 10° SSE 18:31:21 67° ENE 18:36:01 10° N
Cosmos 1937 Rocket 3.7 18:28:18 10° NNW 18:33:30 56° ENE 18:38:42 10° SE
Cosmos 1934 Rocket 4.3 18:28:24 10° SSW 18:34:34 74° W 18:40:53 10° N
Envisat 4.2 18:32:25 10° ESE 18:36:24 24° ENE 18:40:25 10° N
SL-24 R/B - RUBIN 2 4.5 18:32:16 10° SSW 18:38:15 86° ESE 18:44:52 10° NE
Cosmos 2227 Rocket 3.6 18:33:00 10° NW 18:38:16 41° WSW 18:43:30 10° S
Cosmos 990 Rocket 4.4 18:34:42 10° NNW 18:39:48 48° ENE 18:44:50 10° SE
Resurs 1-3 4.2 18:35:55 10° S 18:40:15 61° W 18:44:37 10° NNW
Cosmos 2322 Rocket 3.7 18:41:22 10° SE 18:44:26 15° E 18:47:31 10° ENE
Cosmos 2298 Rocket 4.2 18:40:16 10° NNW 18:45:37 80° WSW 18:50:55 10° SSE
H-2A R/B 2.8 18:43:43 10° SSE 18:47:38 80° ENE 18:51:36 10° N
RESURS DK-1 2.4 18:44:44 10° NNW 18:48:54 88° WSW 18:53:03 10° SSE
USA 186 1.3 18:46:06 10° SSE 18:49:00 67° ENE 18:51:42 10° N
Cosmos 1153 Rocket 4.4 18:44:08 10° S 18:50:16 74° E 18:56:24 10° NNE
Cosmos 2297 Rocket 3.4 18:47:31 10° NW 18:52:51 43° WSW 18:58:09 10° S
ERS-1 Rocket 3.5 18:49:08 10° SE 18:53:48 41° ENE 18:58:29 10° N
Cosmos 1606 Rocket 4.5 18:50:19 10° SSE 18:54:05 28° E 18:57:53 10° NNE
Cosmos 1666 4.3 18:54:12 15° ESE 18:55:24 17° E 18:57:54 10° NE
Cosmos 2058 Rocket 4.5 18:53:16 13° SE 18:55:50 20° E 18:59:07 10° NE
CZ-4 DEB 3.1 19:03:48 18° SE 19:05:51 45° ENE 19:08:53 10° N
Cosmos 1763 Rocket 3.7 19:01:13 10° S 19:06:03 45° ESE 19:10:52 10° NNE
Cosmos 1500 3.1 19:02:46 10° S 19:06:32 87° W 19:10:21 10° N
Cosmos 2227 4.3 19:01:29 10° NNW 19:07:15 69° ENE 19:12:07 14° SE
Cosmos 1340 2.8 19:05:01 10° N 19:08:45 53° ENE 19:11:33 17° SSE
Cosmos 1802 Rocket 4.2 19:02:48 10° SSE 19:08:58 53° E 19:15:13 10° NNE
Resurs 01 Rocket 4.1 19:07:56 10° SSW 19:11:30 23° W 19:15:05 10° NW
Cosmos 2016 Rocket 4.2 19:05:58 10° SSE 19:11:46 46° E 19:17:40 10° NNE
Tiangong 1 2.9 19:09:23 10° WSW 19:11:48 20° SSW 19:13:13 15° SSE
BREEZE-M TANK 3.7 19:00:28 10° WNW 19:13:18 65° SSW 19:15:55 21° SE
Meteor 1-21 4.3 19:07:59 10° N 19:13:45 63° ENE 19:19:07 12° SSE
CZ-2D R/B 4.4 19:11:23 10° S 19:15:07 44° W 19:18:52 10° NNW
Cosmos 1726 Rocket 4.0 19:12:04 11° SSE 19:15:57 40° E 19:20:05 10° NNE
Cosmos 1975 4.3 19:15:29 10° SSW 19:19:22 41° WNW 19:23:17 10° N
Cosmos 2173 Rocket 4.0 19:17:01 10° S 19:23:22 77° E 19:29:40 10° N
Cosmos 1125 Rocket 3.8 19:19:26 10° NNW 19:24:30 48° ENE 19:27:17 25° SE
ASTEX 1 4.1 19:20:25 10° NNE 19:25:00 35° E 19:27:08 24° SE
Cosmos 1697 Rocket 3.2 19:22:02 10° SW 19:27:38 63° WNW 19:33:16 10° NNE
Cosmos 1825 Rocket 3.6 19:24:40 10° N 19:29:07 84° W 19:32:55 14° S
Cosmos 841 Rocket 3.4 19:26:46 10° S 19:31:57 68° ESE 19:37:09 10° NNE
Cosmos 540 Rocket 4.3 19:33:13 27° ESE 19:33:47 28° E 19:38:08 10° NE
ARGOS 4.1 19:34:18 24° E 19:36:09 30° ENE 19:40:46 10° N
Cosmos 2098 Rocket 3.9 19:32:12 10° S 19:38:36 56° E 19:43:45 10° NNE
Cosmos 2228 3.4 19:41:02 37° ESE 19:41:37 39° E 19:45:37 10° NNE
Cosmos 1953 Rocket 3.6 19:37:26 10° N 19:41:56 84° W 19:44:51 21° S
MetOp-B 4.4 19:40:11 30° SE 19:42:33 50° ENE 19:47:43 10° N
SL-16 R/B 2.5 19:37:45 10° S 19:43:04 42° ESE 19:48:23 10° NE
Cosmos 332 Rocket 4.4 19:42:38 34° ESE 19:43:12 35° ESE 19:47:39 10° NE
Cosmos 2100 Rocket 4.2 19:36:59 10° SSW 19:43:14 72° W 19:49:27 10° N
Cosmos 405 Rocket 3.7 19:40:27 10° N 19:43:32 28° ENE 19:43:32 28° ENE
H-2A R/B 1.9 19:43:35 39° SE 19:44:57 64° ENE 19:49:08 10° N
Lacrosse 5 3.9 19:45:57 10° WNW 19:49:42 21° WSW 19:53:19 10° S
Cosmos 372 Rocket 4.2 19:46:50 10° NNW 19:51:51 51° ENE 19:53:21 38° ESE
Cosmos 1980 Rocket 2.6 19:46:49 10° SW 19:52:27 65° WNW 19:58:09 10° NNE
Cosmos 1743 3.8 19:49:06 10° SSW 19:52:52 45° WNW 19:56:40 10° N
Cosmos 2360 Rocket 3.9 19:55:43 16° ENE 19:55:43 16° ENE 19:57:25 10° NE
Tsikada Rocket 4.0 19:49:02 10° N 19:55:29 73° E 19:58:59 29° SSE
PSLV R/B 4.4 19:59:34 33° NNE 19:59:34 33° NNE 20:01:36 10° N
Cosmos 1758 Rocket 3.9 19:55:44 10° NNW 20:00:02 62° W 20:02:13 27° SSW
Cosmos 1939 Rocket 3.6 19:58:39 24° SSW 20:00:56 52° W 20:05:03 10° NNW
SPOT 5 2.7 19:59:36 40° SSE 20:01:21 81° ENE 20:06:04 10° NNW
Cosmos 1816 Rocket 4.5 20:01:41 10° N 20:08:04 72° E 20:10:40 38° SSE
Terra 3.2 20:11:31 24° ENE 20:11:31 24° ENE 20:15:08 10° NNE
Cosmos 2263 Rocket 2.2 20:08:25 10° NNW 20:13:59 67° ENE 20:15:15 51° ESE
Cosmos 1725 Rocket 3.9 20:09:11 17° S 20:14:09 89° WNW 20:20:27 10° N
Envisat 3.8 20:12:00 21° SSW 20:15:07 49° W 20:20:04 10° NNW
deb Chang Zheng 4 3.6 20:12:04 10° NNE 20:16:32 79° WNW 20:18:18 36° SSW
CZ-4B R/B 4.2 20:14:02 10° NNE 20:17:23 35° ENE 20:17:23 35° ENE
GP-B 4.5 20:18:12 10° NNE 20:20:48 26° NE 20:20:48 26° NE
YAOGAN 6 3.0 20:24:53 64° WNW 20:24:53 64° WNW 20:28:23 10° NNW
Cosmos 2322 Rocket 2.2 20:22:05 10° SSW 20:27:42 83° WNW 20:33:22 10° NNE
MetOp-A 4.4 20:27:07 41° SSW 20:28:55 66° WSW 20:34:16 10° NNW
Cosmos 1666 4.2 20:29:09 23° WSW 20:30:49 34° WNW 20:34:20 10° N
SL-08 RB Rocket 3.7 20:31:48 69° ENE 20:31:48 69° ENE 20:36:16 10° N
USA 215 3.8 20:30:30 32° E 20:33:19 51° NNE 20:39:36 10° NW
Cosmos 2058 Rocket 4.3 20:30:30 18° SW 20:33:31 41° WNW 20:37:49 10° N
Cosmos 2233 Rocket 3.8 20:32:25 46° S 20:34:25 82° E 20:40:42 10° N
Cosmos 1707 4.0 20:31:29 10° N 20:33:53 33° NNE 20:33:53 33° NNE
SL-19 R/B 4.0 20:33:05 10° NNE 20:38:33 81° ESE 20:39:04 72° SSE
Meteor 2-5 Rocket 3.7 20:43:19 10° NNW 20:49:16 88° W 20:49:53 73° S
H-2A R/B 2.2 20:52:33 60° NNE 20:52:33 60° NNE 20:56:51 10° N
Meteor 1-24 Rocket 3.9 20:47:17 10° N 20:53:16 61° ENE 20:53:16 61° ENE
COSMOS 2428 4.5 21:06:32 19° NE 21:06:32 19° NE 21:08:22 10° NE
Cosmos 2034 Rocket 4.5 21:05:25 45° ENE 21:05:25 45° ENE 21:10:18 10° NNE
Cosmos 2278 Rocket 3.7 21:05:00 10° N 21:09:39 25° NE 21:09:42 25° NE
SPOT 1/Viking Rocket 4.4 21:11:20 41° WSW 21:11:44 41° W 21:16:39 10° NNW
ARGOS 4.0 21:15:50 41° WSW 21:16:13 42° W 21:21:21 10° NNW
BREEZE-M DEB (TANK) 4.0 21:06:58 10° WNW 21:21:45 56° SW 21:21:51 56° SW
Cosmos 1844 Rocket 3.2 21:19:09 10° NNW 21:23:44 50° NNE 21:23:44 50° NNE
Cosmos 1464 Rocket 3.9 21:24:57 85° N 21:24:57 85° N 21:31:09 10° N
Cosmos 371 Rocket 4.4 21:25:06 40° WNW 21:25:16 40° WNW 21:29:50 10° N
SL-16 R/B 3.7 21:22:09 10° WSW 21:27:16 34° NW 21:32:25 10° NNE
Nadezhda 4 Rocket 4.3 21:26:14 10° N 21:31:46 60° NE 21:31:46 60° NE
Cosmos 2360 Rocket 2.6 21:37:26 59° NNW 21:37:26 59° NNW 21:42:26 10° NNE
Cosmos 1844 4.4 21:31:41 10° NNW 21:36:12 47° NNE 21:36:12 47° NNE
ATLAS 3B R/B 4.3 21:44:43 23° ENE 21:44:43 23° ENE 21:47:37 10° NE
Terra 3.3 21:50:24 32° NW 21:50:24 32° NW 21:53:24 10° NNW
ATLAS CENTAUR R/B 4.1 21:52:33 64° S 21:54:11 74° SE 22:18:15 10° NE
Cosmos 2219 Rocket 4.0 21:58:08 21° NE 21:58:08 21° NE 22:00:02 10° NE
Cosmos 2263 Rocket 4.1 21:53:31 10° WNW 21:56:57 19° W 21:56:57 19° W
Lacrosse 4 Rocket 4.0 22:08:53 20° N 22:08:53 20° N 22:10:28 10° NNE
UNK 4.4 21:57:41 10° W 22:10:12 61° NNW 22:10:12 61° NNW
USA 215 3.8 22:17:51 50° W 22:17:51 50° W 22:22:44 10° NW
Cosmos 2237 Rocket 4.1 22:23:12 22° NE 22:23:12 22° NE 22:25:16 10° NE
ATLAS CENTAUR R/B 4.3 22:26:00 10° N 22:28:01 14° NNE 22:28:01 14° NNE
Cosmos 2333 Rocket 3.8 22:33:23 29° NE 22:33:23 29° NE 22:36:07 10° NNE
H-2A R/B 4.4 22:33:12 14° WNW 22:33:12 14° WNW 22:34:46 10° NW
COSMOS 2428 4.0 22:48:31 36° NNW 22:48:31 36° NNW 22:52:46 10° NNE
Cosmos 2278 Rocket 3.7 22:48:35 10° NNW 22:51:32 31° NW 22:51:32 31° NW
CZ-2C R/B 4.4 22:56:59 10° NNE 22:59:44 28° NE 22:59:44 28° NE
ATLAS 3B R/B 3.2 23:31:57 62° NNW 23:31:57 62° NNW 23:38:50 10° NE
Cosmos 2369 Rocket 3.9 23:29:06 10° N 23:33:40 26° NE 23:33:40 26° NE
Cosmos 2219 Rocket 3.8 23:39:49 28° NNW 23:39:49 28° NNW 23:43:45 10° N
CZ-4C R/B 3.7 23:45:07 33° NE 23:45:07 33° NE 23:48:26 10° NE
COSMOS 2455 4.0 23:45:36 37° NNW 23:45:36 37° NNW 23:50:20 10° NNE
